Location: Henham
(51.9333°N, 0.2500°E)
Time: 02:00:06
(UTC+00:00)

STARLINK-49 - Pass Details

Date: 23 October 2019
Orbit: 549 x 551 km, 53.0° (Epoch: 17 November)

Event Time Altitude Azimuth Distance (km) Brightness Sun altitude
Rises 17:42:11 0° 273° (W) 2,718 9.2 -8.8°
Reaches altitude 10° 17:44:26 10° 275° (W) 1,825 7.8 -9.2°
Maximum altitude 17:48:35 75° 2° (N) 573 3.7 -9.8°
Enters shadow 17:52:01 15° 87° (E) 1,550 5.2 -10.3°
